Location: Kalamazoo
(42.2920°N, 85.5870°W)
Time: 02:57:28
(UTC-04:00)

Daily predictions for brighter satellites

Satellite Brightness Start Highest point End
(mag) Time Altitude Azimuth Time Altitude Azimuth Time Altitude Azimuth
Cosmos 1500 Rocket 4.0 00:05:52 33° SSW 00:07:43 60° W 00:12:09 10° N
Cosmos 304 Rocket 4.2 00:05:37 10° N 00:10:17 49° ENE 00:11:32 39° ESE
Cosmos 1455 2.3 00:08:55 10° N 00:12:46 60° E 00:12:57 59° E
Cosmos 2058 3.0 00:12:00 48° SSW 00:13:03 72° W 00:17:17 10° N
H-2A R/B 3.8 00:12:35 15° SW 00:15:46 25° W 00:20:09 10° NW
Cosmos 1844 Rocket 4.4 00:16:15 16° E 00:16:15 16° E 00:19:17 10° ENE
Cosmos 1943 3.2 00:13:11 10° NNW 00:18:50 75° WSW 00:20:39 44° S
Cosmos 1503 Rocket 3.9 00:19:42 49° S 00:20:59 69° ESE 00:26:09 10° NNE
Cosmos 2151 3.8 00:22:03 33° SW 00:23:32 47° WNW 00:27:43 10° N
USA 234 4.5 00:19:35 10° NE 00:25:39 42° NNW 00:31:42 10° W
Cosmos 1703 3.6 00:25:25 52° WSW 00:26:04 60° W 00:30:01 10° N
Cosmos 1805 Rocket 3.5 00:26:04 62° ESE 00:26:23 65° E 00:30:41 10° NNE
Cosmos 2233 Rocket 4.4 00:22:49 10° NNW 00:28:50 54° W 00:31:37 31° SSW
Lacrosse 5 2.2 00:24:12 10° NW 00:29:03 46° SW 00:29:38 44° SSW
CZ-2C R/B 3.9 00:28:02 34° ESE 00:30:01 46° ENE 00:35:28 10° N
Cosmos 1633 Rocket 3.7 00:33:49 41° E 00:33:49 41° E 00:37:51 10° NNE
RESURS DK-1 4.2 00:33:05 10° WNW 00:36:10 20° WSW 00:36:33 20° WSW
H-2A R/B 3.5 00:37:37 25° WSW 00:38:33 28° W 00:42:15 10° NW
Abrixas rocket 3.5 00:36:16 10° WNW 00:38:21 36° WNW 00:38:21 36° WNW
Cosmos 2242 Rocket 4.3 00:42:30 10° N 00:46:51 41° ENE 00:47:18 40° E
ARGOS Delta rocket 3.9 00:41:30 10° NNE 00:46:53 84° E 00:47:59 57° S
CZ-4B R/B 4.4 00:46:31 10° N 00:51:34 47° WNW 00:54:00 27° SW
Cosmos 968 Rocket 3.9 00:53:51 44° ESE 00:54:07 45° ESE 00:59:06 10° NNE
CZ-2C R/B 2.6 00:49:44 10° NNE 00:55:03 64° E 00:55:49 56° SE
SME Rocket 3.6 00:55:03 41° WSW 00:55:06 41° W 00:59:09 10° NNW
Cosmos 540 Rocket 3.5 00:55:20 10° NNW 01:00:27 65° WSW 01:01:10 57° SSW
Cosmos 1470 Rocket 4.2 01:01:55 41° E 01:01:55 41° E 01:05:56 10° NNE
Cosmos 1513 Rocket 4.4 00:57:05 10° N 01:03:19 77° W 01:05:03 49° SSW
BREEZE-M DEB 3.8 00:50:01 10° SW 01:03:22 80° SSE 01:06:57 10° ENE
Cosmos 2278 Rocket 4.0 01:03:24 16° E 01:03:25 16° E 01:06:46 10° ENE
Cosmos 2285 Rocket 4.3 00:59:42 10° NNW 01:05:52 55° WSW 01:07:34 43° SSW
Cosmos 2084 Rocket 4.5 01:07:29 10° NNW 01:10:58 33° NE 01:11:30 31° ENE
Terra 4.2 01:10:53 10° WSW 01:12:24 12° W 01:14:04 10° WNW
Cosmos 2034 Rocket 4.0 01:08:58 10° NNW 01:15:19 72° W 01:17:05 49° SSW
Cosmos 1933 3.7 01:12:22 10° N 01:16:12 56° ENE 01:16:12 56° ENE
COSMOS 2406 3.5 01:11:48 10° NNW 01:17:26 61° ENE 01:19:01 44° ESE
ALOS 2 2.6 01:23:04 70° W 01:23:04 70° W 01:27:26 10° NNW
CZ-4C R/B 2.0 01:22:54 63° SSE 01:23:26 68° ESE 01:29:18 10° NE
Cosmos 2263 Rocket 3.7 01:20:31 14° WSW 01:24:31 31° NW 01:29:28 10° N
Meteor 2-10 Rocket 3.6 01:20:45 10° N 01:26:05 74° E 01:27:04 58° SE
Cosmos 292 Rocket 3.8 01:25:34 10° NNW 01:30:20 69° ENE 01:30:47 64° ESE
Sich 1 4.0 01:30:17 36° W 01:30:40 36° WNW 01:34:39 10° N
CZ-4B R/B 3.2 01:31:59 27° ENE 01:31:59 27° ENE 01:34:41 10° N
Cosmos 1315 Rocket 3.5 01:34:45 44° ENE 01:34:45 44° ENE 01:37:55 10° NNE
Meteor 2-3 Rocket 4.1 01:36:55 45° SE 01:37:58 51° E 01:43:34 10° NNE
Cosmos 1400 Rocket 3.1 01:41:35 64° WNW 01:41:35 64° WNW 01:45:30 10° N
Cosmos 2346 Rocket 4.4 01:48:40 54° SSW 01:50:11 81° W 01:56:19 10° N
Cosmos 773 Rocket 4.0 01:46:51 10° NNW 01:52:08 74° ENE 01:53:05 58° SE
Cosmos 1782 4.5 01:50:17 10° NNE 01:53:39 25° ENE 01:54:05 24° E
Cosmos 1634 Rocket 3.9 01:48:21 10° N 01:54:34 89° W 01:56:07 54° S
Cosmos 1844 Rocket 2.8 01:57:52 51° SW 01:59:12 70° WNW 02:04:47 10° NNE
Cosmos 1777 Rocket 3.8 01:58:49 69° S 01:59:26 82° ESE 02:04:41 10° NNE
Cosmos 1862 Rocket 4.1 01:56:00 10° NNW 02:00:01 48° W 02:00:01 48° W
Cosmos 1933 Rocket 4.1 02:01:51 46° W 02:01:59 46° WNW 02:06:13 10° N
Cosmos 1680 Rocket 4.4 01:58:26 10° N 02:03:29 44° ENE 02:05:27 31° ESE
Cosmos 2142 Rocket 4.4 02:01:59 10° N 02:08:16 79° W 02:09:49 53° S
Cosmos 1346 Rocket 3.1 02:05:59 10° N 02:09:34 57° NE 02:09:34 57° NE
CZ-4C R/B 4.4 02:11:16 31° NW 02:11:16 31° NW 02:13:17 10° NNW
Helios 1B 4.4 02:10:14 89° WSW 02:10:14 89° WSW 02:14:37 10° NNW
Aureole 3 4.2 02:11:57 54° SSE 02:13:21 78° E 02:18:29 10° NNE
Cosmos 1892 3.2 02:16:20 56° NW 02:16:20 56° NW 02:19:48 10° N
Cosmos 2221 Rocket 3.6 02:14:25 10° N 02:18:52 70° E 02:19:08 68° ESE
SL-27 R/B 3.4 02:23:18 10° NNW 02:25:39 42° NNW 02:25:39 42° NNW
SeaSat 1 3.9 02:26:04 13° ESE 02:29:48 34° NE 02:34:14 10° N
Cosmos 1703 Rocket 3.7 02:26:59 10° NNW 02:31:25 60° W 02:31:27 60° W
Cosmos 1606 2.9 02:32:14 10° N 02:36:00 65° ENE 02:36:00 65° ENE
Cosmos 1340 4.3 02:39:01 10° NNE 02:42:17 27° ENE 02:43:13 24° E
H-2A R/B 2.5 02:38:43 10° N 02:43:16 75° WNW 02:43:42 68° SW
Genesis I 3.2 02:46:04 80° N 02:46:04 80° N 02:49:50 10° NNE
Cosmos 2278 Rocket 2.2 02:45:14 47° SW 02:46:49 71° WNW 02:52:30 10° NNE
Nadezhda 4 Rocket 4.0 02:50:38 42° S 02:52:56 80° E 02:59:16 10° N
CZ-3B DEB 4.5 02:40:45 10° NW 02:53:50 68° NNE 03:05:39 10° ESE
Cosmos 1869 Rocket 4.1 02:54:19 43° W 02:54:38 44° WNW 02:58:49 10° N
Cosmos 1833 Rocket 3.1 02:49:38 10° NNW 02:55:14 59° ENE 02:58:54 21° SE
Okean 1-7 3.5 02:54:02 10° NNW 02:58:10 44° W 02:58:10 44° W
Cosmos 923 Rocket 4.4 02:57:35 10° NNW 03:02:28 42° WSW 03:02:55 41° WSW
COSMOS 2487 3.6 02:59:14 10° N 03:02:36 39° ENE 03:03:26 33° E
GP-B 4.3 02:58:46 10° NNE 03:02:53 36° E 03:04:28 27° SE
Cosmos 1461 3.1 03:03:34 52° WNW 03:03:56 54° NW 03:07:52 10° NNE
CZ-4B R/B 3.8 03:05:33 15° WNW 03:05:33 15° WNW 03:06:43 10° NW
Cosmos 2297 3.7 03:04:57 46° S 03:06:42 76° ESE 03:12:24 10° NNE
SL-16 R/B 3.9 03:02:43 10° SE 03:08:17 36° ENE 03:13:55 10° N
Cosmos 2298 Rocket 4.3 03:07:34 40° SSE 03:09:11 58° ESE 03:14:24 10° NNE
CZ-4C R/B 4.1 03:08:03 10° W 03:12:34 25° NW 03:17:38 10° NNE
Exosat Rocket 4.1 03:12:17 10° NNW 03:17:47 79° ENE 03:24:04 15° SSE
Cosmos 1733 Rocket 2.9 03:19:01 57° SSW 03:19:54 86° W 03:24:18 10° N
Cosmos 2082 Rocket 2.1 03:14:28 10° NNW 03:20:07 84° WSW 03:22:59 31° SSE
ADEOS Rocket 4.0 03:13:08 10° NNE 03:20:36 53° E 03:25:04 23° SSE
Cosmos 1862 3.3 03:20:10 61° SW 03:20:39 69° W 03:24:42 10° N
Cosmos 2150 Rocket 4.3 03:19:04 39° S 03:21:03 66° ESE 03:26:28 10° NNE
BREEZE-M DEB (TANK) 4.4 03:18:10 34° SSW 03:21:15 60° SE 03:46:21 10° ENE
Cosmos 1825 3.0 03:21:09 37° W 03:21:15 37° WNW 03:24:49 10° N
PSLV R/B 4.3 03:17:15 10° N 03:21:24 42° WNW 03:22:20 37° WSW
Cosmos 1782 4.3 03:26:37 10° NW 03:29:44 24° W 03:29:44 24° W
ATLAS 3B R/B 2.9 03:28:25 32° SSW 03:32:11 71° ESE 03:39:22 10° NE
Cosmos 44 3.1 03:32:00 45° SW 03:33:23 78° NW 03:37:53 10° NNE
Cosmos 1408 4.1 03:34:05 23° WNW 03:34:09 23° WNW 03:37:06 10° NNW
Sich 1 Rocket 3.9 03:38:43 33° SSE 03:40:39 65° E 03:45:13 10° NNE
Meteor 1-27 Rocket 4.1 03:35:10 10° NNW 03:40:55 52° W 03:43:19 33° SSW
Cosmos 2195 Rocket 4.5 03:38:14 30° S 03:41:30 90° W 03:47:50 10° N
Cosmos 44 Rocket 3.6 03:41:11 33° WSW 03:43:07 55° NW 03:47:49 10° NNE
AQUA 3.8 03:40:40 10° NNE 03:45:27 86° ESE 03:47:29 35° S
Cosmos 1627 Rocket 4.4 03:42:21 30° S 03:45:34 87° W 03:51:46 10° N
Okean 3 3.5 03:41:28 10° N 03:45:44 79° E 03:47:40 31° SSE
Helios 1A Rocket 3.8 03:42:33 10° N 03:46:23 37° WNW 03:47:25 32° WSW
Cosmos 1674 Rocket 3.7 03:45:11 10° NNW 03:49:32 54° W 03:50:50 39° SSW
Timation 2 Rocket 3.8 03:44:15 10° NNW 03:50:20 79° WSW 03:56:12 12° SSE
Cosmos 1937 Rocket 3.6 03:49:53 34° SW 03:52:07 67° WNW 03:57:16 10° NNE
Resurs 1-4 Rocket 2.4 03:51:22 10° NNE 03:56:40 61° E 04:00:04 22° S
COBE Rocket 3.8 03:54:07 10° N 03:58:57 88° W 04:01:30 29° SSW
Geosat 4.0 03:54:27 10° NNE 03:59:31 85° ESE 04:02:09 29° SSW
Cosmos 1908 Rocket 3.5 03:58:20 35° SSW 04:00:10 74° W 04:04:38 10° N
BREEZE M DEB (TANK) 3.6 03:59:11 18° WNW 04:00:32 29° NNW 04:02:34 10° NE
BREEZE-M DEB (TANK) 4.3 03:56:48 22° SSW 04:01:12 36° SSE 04:04:49 10° E
BREEZE-M DEB (TANK) 2.3 04:04:04 36° SSE 04:04:27 39° SE 04:08:45 10° ENE
Cosmos 1898 Rocket 4.4 04:03:10 23° WSW 04:05:43 37° WNW 04:10:35 10° N
BREEZE-M R/B 4.2 03:58:30 10° WNW 04:05:51 53° NNE 04:09:28 10° E
SeaSat 1 3.1 04:05:50 29° SW 04:07:16 34° WSW 04:11:46 10° NW
Cosmos 990 Rocket 4.2 04:05:25 28° SW 04:07:58 56° WNW 04:13:05 10° NNE
Okean 2 Rocket 3.7 04:05:26 19° SSE 04:08:25 53° E 04:12:43 10° NNE
IRS-1C 4.2 04:05:26 10° N 04:10:45 67° WNW 04:13:51 25° SSW
Cosmos 1378 Rocket 3.6 04:06:57 10° NNW 04:11:12 58° W 04:13:18 28° SSW
CZ-2D R/B 2.2 04:06:45 10° NNE 04:12:10 82° ESE 04:15:55 21° S
Cosmos 1125 Rocket 4.0 04:11:41 18° S 04:15:28 55° ESE 04:20:38 10° NNE
Cosmos 2026 Rocket 4.2 04:13:40 24° SSW 04:17:16 54° WNW 04:23:12 10° N
ARIANE 5 R/B 2.5 04:12:28 10° NNE 04:17:29 83° ESE 04:20:57 20° S
Cosmos 1553 Rocket 4.0 04:11:16 10° N 04:17:40 85° W 04:23:53 11° S
Cosmos 1340 4.3 04:15:06 10° NW 04:17:47 19° W 04:18:02 19° W
Spot 4 Rocket 4.0 04:14:46 10° N 04:19:56 79° WNW 04:23:21 22° SSW
SL-08 R/B 4.1 04:18:18 25° SW 04:20:15 34° W 04:24:38 10° NNW
Cosmos 1782 Rocket 3.6 04:20:21 24° SSW 04:22:58 72° W 04:27:28 10° N
USA 238 DEB 3.8 04:18:44 21° SW 04:23:36 78° NW 04:30:39 10° NNE
USA 238 3.8 04:18:50 21° SW 04:23:42 78° NW 04:30:45 10° NE
UNKNOWN OBJECT B 3.3 04:23:37 10° NNE 04:27:16 51° E 04:30:08 15° S
IRS-1D 3.5 04:22:28 10° N 04:27:35 72° WNW 04:31:04 20° SSW
Meteor 1-18 Rocket 4.1 04:25:11 10° NNW 04:30:45 79° W 04:36:18 10° S
Cosmos 2278 Rocket 4.4 04:29:22 10° WNW 04:31:58 13° NW 04:34:35 10° NNW
CZ-3A R/B 4.4 04:30:32 15° SSW 04:34:22 20° SSE 04:49:22 10° SE
Meteor 1-20 Rocket 4.3 04:32:31 16° SSW 04:37:13 79° W 04:43:06 10° N
Cosmos 1833 Rocket 4.1 04:34:40 10° NW 04:38:38 20° W 04:40:32 17° SW
Okean O Rocket 4.2 04:35:51 10° NE 04:38:41 17° E 04:41:30 10° SE
Cosmos 1943 Rocket 3.3 04:33:30 10° S 04:38:42 39° ESE 04:43:54 10° NE
Cosmos 724 4.5 04:34:55 17° SSW 04:39:47 80° ESE 04:45:58 10° NE
Cosmos 1346 2.9 04:37:52 10° NNW 04:40:33 55° W 04:41:59 23° SSW
Cosmos 2369 Rocket 2.3 04:36:24 16° SSW 04:41:00 75° ESE 04:46:39 10° NNE
Cosmos 1437 3.5 04:41:13 10° NNW 04:44:13 35° W 04:45:49 21° SSW
Cosmos 1269 Rocket 4.1 04:38:53 10° NNW 04:44:14 86° ENE 04:49:32 10° SSE
Cosmos 405 Rocket 2.7 04:41:41 10° N 04:45:41 86° W 04:49:34 10° S
UNK 4.5 04:42:46 17° SSW 04:45:48 35° W 04:50:06 10° NNW
CZ-3B DEB 4.1 04:35:23 10° NW 04:48:12 60° SW 04:58:34 10° SSE
COSMOS 2455 3.6 04:44:25 10° S 04:50:10 49° ESE 04:55:56 10° NE
Cosmos 1812 3.6 04:47:43 10° NNW 04:51:10 32° W 04:53:36 16° SW
SL-16 R/B 3.1 04:46:39 13° SSW 04:51:50 38° W 04:57:38 10° NNW
ADEOS II 3.6 04:47:31 10° NNE 04:52:16 33° E 04:56:58 10° SSE
Cosmos 1975 Rocket 3.7 04:48:34 10° NNW 04:52:32 36° W 04:55:49 14° SSW
Cosmos 372 Rocket 4.0 04:49:53 14° SSW 04:54:26 83° WNW 04:59:40 10° NNE
Cosmos 2151 Rocket 3.7 04:51:54 10° S 04:56:25 88° E 05:00:58 10° N
USA 267 3.3 04:50:29 10° NE 04:57:04 82° SE 05:03:11 12° SW
Cosmos 2263 4.4 04:52:13 11° SSW 04:57:48 74° ESE 05:03:35 10° NNE
USA 161 1.3 04:59:57 10° SSE 05:02:16 70° ENE 05:04:49 10° N
Cosmos 2082 Rocket 4.1 05:02:02 10° W 05:03:16 11° W 05:04:29 10° WSW
NOSS 3-2 (C) 3.6 04:57:46 12° SSW 05:03:18 80° ESE 05:09:55 10° NE
Cosmos 1536 3.9 05:00:04 10° SSE 05:03:50 43° E 05:07:38 10° NNE
NOSS 3-2 (A) 3.5 04:58:42 13° SW 05:04:06 80° NW 05:10:46 10° NE
ADEOS Rocket 4.4 04:58:59 10° N 05:05:41 34° WNW 05:11:59 10° WSW
Abrixas 4.1 05:04:01 10° NW 05:06:34 33° NNE 05:09:06 10° E
Cosmos 158 Rocket 4.0 05:02:23 10° NNW 05:07:23 56° WSW 05:12:14 10° S
SL-24 R/B 4.1 05:03:52 10° N 05:08:00 75° WNW 05:12:43 10° SSW
Cosmos 1602 3.8 05:08:32 10° SSW 05:12:27 66° W 05:16:23 10° N
Cosmos 2344 3.7 05:05:50 11° SW 05:13:12 79° NW 05:21:54 10° NE
Cosmos 1536 Rocket 3.6 05:10:48 10° NNW 05:15:17 70° W 05:19:43 10° S
Cosmos 2315 Rocket 4.0 05:10:34 10° N 05:16:54 81° W 05:23:08 10° S
Cosmos 2266 Rocket 4.4 05:14:26 10° SSW 05:20:39 52° WNW 05:26:54 10° N
BREEZE-M DEB (TANK) 3.3 05:17:35 10° WNW 05:21:36 31° SW 05:24:06 10° SSE
CENTAUR R/B 3.7 05:16:23 10° S 05:21:50 38° ESE 05:27:54 10° NE
PSLV R/B 4.2 05:18:52 10° NNE 05:22:33 60° E 05:26:13 10° S
ATLAS 3B R/B 4.0 05:17:00 10° W 05:23:29 32° NW 05:29:45 10° NNE
USA 234 4.1 05:25:04 10° ESE 05:31:26 57° NNE 05:37:49 10° NW
PSLV R/B 4.3 05:27:22 10° NNE 05:31:32 54° E 05:35:43 10° S
Gbstr 26 Del rocket 2.8 05:27:59 10° SW 05:31:41 69° SE 05:35:32 10° ENE
Okean 1-7 Rocket 4.4 05:27:55 10° N 05:32:21 56° E 05:36:42 10° SSE
Cosmos 1633 4.0 05:29:25 10° SW 05:32:23 23° WNW 05:35:22 10° NNW
Resurs 1-4 Rocket 3.8 05:32:21 10° NNW 05:35:59 19° WNW 05:39:38 10° WSW
